Volver al catálogo

RCM 1

ActivoCienciaSSO
NORAD 44322·PAYLOAD·🇨🇦 Canada

Lanzado Jun 12, 2019 desde Vandenberg Space Force Base

Loading…

Próximos Pases (próximas 24 horas)

TLE

ActualizadoSource: Space-Track

Época: Sep 14, 2026, 15:27 UTC

1 44322U 19033A   26257.64427723  .00000769  00000-0  80200-4 0  9994
2 44322  97.7602 263.8268 0001498  90.0776 336.7251 14.92591982395424

Sigue RCM 1 en tiempo real con AllMySat

Download on the App Store